Regional Weather Roundup
Issued by NWS San Diego, CA

Home | Current Version | Previous Version | Text Only | Print | Product List | Glossary On
Versions: 1 2 3 4 5 6 7 8 9 10 11 12 13 14 15 16 17 18 19 20 21 22 23 24 25 26 27 28 29 30 31 32 33 34 35 36 37 38 39 40 41 42 43 44 45 46 47 48 49 50
000
ASUS46 KSGX 282111
RWRSGX
SAN DIEGO HOURLY WEATHER ROUNDUP
NATIONAL WEATHER SERVICE SAN DIEGO CA
200 PM PDT FRI APR 28 2017

NOTE: "FAIR" INDICATES FEW OR NO CLOUDS BELOW 12,000 FEET WITH NO
SIGNIFICANT WEATHER AND/OR OBSTRUCTIONS TO VISIBILITY.

CAZ042-043-060-061-PZZ750-775-282200-

GREATER SAN DIEGO AREA

CITY           SKY/WX    TMP DP  RH WIND       PRES   REMARKS
SAN DIEGO AP   PTSUNNY   73  54  51 NW12      29.79F
NATIONAL CITY    N/A     72  60  65 SW12      29.79F
CHULA VISTA      N/A     71  60  66 W7        29.71F
BROWN FIELD    FAIR      72  54  53 W12       29.79S
MIRAMAR MCAS   FAIR      79  47  32 W9        29.77F
MONTGOMERY FLD FAIR      76  45  33 W13       29.77F

$$

NORTH SAN DIEGO COUNTY

CITY           SKY/WX    TMP DP  RH WIND       PRES   REMARKS
CAMP PENDLETON FAIR      73  57  57 SW10G17   29.77F
OCEANSIDE AP   FAIR      74  58  57 W14       29.77F
OCEANSIDE HBR    N/A     67  60  78 W6        29.81F
VISTA            N/A     73  56  53 W2        29.75F
CARLSBAD       FAIR      69  54  58 W10       29.77F
DEL MAR          N/A     70  62  76 W1        29.80F
LA JOLLA SCRIP   N/A     65  61  85 SW3       29.78F
FALLBROOK        N/A     77  58  50 SW5       29.75F
ESCONDIDO        N/A     79  47  32 W14       29.77F
SAN MARCOS       N/A     73  53  49 NW13      29.78F
POWAY            N/A     79  55  43 W2        29.77F

$$

EAST SAN DIEGO COUNTY

CITY           SKY/WX    TMP DP  RH WIND       PRES   REMARKS
RAMONA         FAIR      75  53  46 W10G18    29.77F
SANTEE LAKES     N/A     77  56  46 SW7       29.75F
LA MESA          N/A     75  56  52 W8        29.71F
JAMUL            N/A     73  58  59 CALM      29.78S
DESCANSO N       N/A     67  50  53 W5        29.72S
MT. LAGUNA OBS   N/A     59  42  53 W3        29.50F
CAMPO            N/A     73  48  41 SW14G23   29.75F

$$

ORANGE COUNTY AND THE LOS ANGELES BASIN

CITY           SKY/WX    TMP DP  RH WIND       PRES   REMARKS
JOHN WAYNE AP  PTSUNNY   75  49  39 SW12      29.77F
LAGUNA BEACH     N/A     71  61  70 E6        29.74F
LAKE FOREST FR   N/A     80  40  23 W13       29.66F
HUNTINGTON BCH   N/A     69  57  64 SW5       29.78F
LOS ALAMITOS   MOSUNNY   77  48  36 S8        29.75F
FULLERTON      FAIR      81  45  28 S12       29.74F
LONG BEACH     FAIR      82  31  15 W14G24    29.74F
L.A. AP        FAIR      73  45  36 W28       29.78R
L.A. DOWNTOWN  FAIR      83  28  13 VRB6G20   29.75F

$$

THE INLAND EMPIRE

CITY           SKY/WX    TMP DP  RH WIND       PRES   REMARKS
CORONA         FAIR      81  38  21 VRB7      29.76F
CHINO          FAIR      84  35  17 SW8       29.77F
ONTARIO        PTSUNNY   79  33  19 W6G17     29.76F
SAN BERNARDINO SUNNY     82  21  10 N12G25    29.76F
RIVERSIDE AP   FAIR      80  34  19 VRB6      29.76F
MORENO VALLEY    N/A     79  32  17 SW9       27.90F
MARCH ARB      FAIR      79  21  11 NW16G23   29.77S
HORSETHIEF CYN   N/A     78  28  16 NE8       29.77F
PERRIS           N/A     78  30  17 W12       29.77F
HEMET EAST       N/A     76  19  12 W12       29.80F
FRENCH VALLEY  FAIR      81  27  13 NW7G17    29.77F
TEMECULA         N/A     81  45  28 W5        29.79F

$$

SAN BERNARDINO AND RIVERSIDE COUNTY MOUNTAINS

CITY           SKY/WX    TMP DP  RH WIND       PRES   REMARKS
BIG BEAR AP    FAIR      48  12  23 N5        29.94F
ANGELUS OAKS     N/A     62  26  25 CALM      29.66F
PINE COVE        N/A     59  32  36 SW3       29.75R

$$

SOUTHERN DESERT INCLUDING THE COACHELLA VALLEY

CITY           SKY/WX    TMP DP  RH WIND       PRES   REMARKS
PALM SPRINGS   FAIR      87  20   8 VRB7      29.72F
PALM DESERT      N/A     87  27  11 N3        29.60F
THERMAL        FAIR      88  18   7 NW8       29.66F
BLYTHE         FAIR      84  16   8 N20       29.70F
IMPERIAL AP    FAIR      86  28  12 N9G18     29.68F
EL CENTRO NAS  FAIR      86  20   9 N10G22    29.70F
YUMA AZ        FAIR      86  21   9 N12G23    29.69
MEXICALI       SUNNY     84  19   9 NW18      29.69

$$

UPPER DESERT

CITY           SKY/WX    TMP DP  RH WIND       PRES   REMARKS
VICTORVILLE AP FAIR      70  16  12 N5        29.86F
HESPERIA         N/A     69  21  16 N5        29.92F
PALMDALE       FAIR      74  25  16 N17G25    29.86F
LANCASTER      FAIR      72  26  18 N18G32    29.86F
EDWARDS AFB    PTSUNNY   72  22  15 NE6       29.81F
DAGGETT        FAIR      75  17  11 N9G18     29.83F
29 PALMS N     FAIR      75  13   9 N16G24    29.87F
NEEDLES        FAIR      80   9   6 NE28G40   29.74F

$$

REGIONAL REPORTS

CITY           SKY/WX    TMP DP  RH WIND       PRES   REMARKS
SANTA BARBARA  FAIR      75  46  35 CALM      29.80F
SANDBERG       FAIR      58  31  35 N10G31    29.96F
LAS VEGAS NV   FAIR      71   1   6 NW21G30   29.83F
PHOENIX AZ     FAIR      82  29  14 SW12G22   29.59F
TIJUANA        PTSUNNY   72  50  46 W12       29.81F
ENSENADA NW      N/A     68  32  26 W6        29.78F

$$

OFFSHORE ISLANDS

CITY           SKY/WX    TMP DP  RH WIND       PRES   REMARKS
CATALINA ARPT  FAIR      66  46  48 W12       29.85S
SAN CLEMENTE I PTSUNNY   67  50  54 W21G28    29.84F
SAN NICOLAS IS PTSUNNY   62  48  60 NW33G44   29.85F

$$

MARINE AND OFFSHORE BUOY REPORTS

STATION/POSITION SKY/WX   TEMP    WIND        PRES    VSBY  SWELL
                          AIR SEA DIR/SP/G                  HT/PER/DIR
                          (F)     (DEG/KT/KT) (MB)    (MI)  (FT/S/D)
TANNER BANKS               57 56  310/ 27/ 31 1010.5F         8/340/10
S CLEMENTE BASIN           61 63  300/ 17/ 21 1009.2F         7/280/ 9
SAN NICOLAS IS.               54                N/A           5/300/11
SO. S. ROSA ISLA           54 52  300/ 25/ 31 1011.3F         8/310/10
W. S. BARBARA CH           53 50  330/ 23/ 27 1012.4F         8/310/10
M. S. BARBARA CH                  260/ 19/ 23 1010.4F
S. MONICA BASIN            62 62  270/  8/ 12 1009.5
S PEDRO CHANNEL               58                N/A           2/280/11
CMP PENDLETON NS              65                N/A           2/260/11
OCEANSIDE OFFSHR              65                N/A           3/280/11
TORREY PINES OTR              64                N/A           3/280/11
POINT LOMA SOUTH              62                N/A           5/280/11

$$





USA.gov is the U.S. government's official web portal to all federal, state and local government web resources and services.